www.pogodaiklimat.ru

Погода и климат >> Архив погоды >> Узбекистан >> Айякагитма


ПОГОДА в Айякагитме

  • Прогноз погоды в Айякагитме
  • Монитор погоды в Айякагитме

АРХИВ ПОГОДЫ в Айякагитме

Время (UTC), дата Ветер
(напр.,м/с)
 
Видим.   Явления Облачность Т
(С)
Тd
(С)
f
(%)
Тe
(С)
Тes
(С)
Комфортность P
(гПа)
Po
(гПа)
Тmin
(С)
Tmax
(С)
R
(мм)
R24
(мм)
S
(см)
03 12.08 СЗ 6 20 км 3/0
[Ac cuf]
+29.0 +0.4 16 +27 +28 жарко 1005.2 980.8 +24.5
06 12.08 З 4 20 км 5/0
[Ac cast]
+34.8 -0.2 11 +31 +38 жарко 1005.8 981.9 +24.6
09 12.08 СЗ 6 20 км 6/0
[Ac cast]
+36.4 +3.8 13 +33 +37 жарко 1005.4 981.6
12 12.08 СЗ 6 20 км 3/0
[Ac cast]
+35.6 +6.1 16 +33 +35 жарко 1005.3 981.5
15 12.08 СЗ 5 20 км ясно +31.8 +3.0 16 +29 +29 жарко 1005.8 981.7 +36.4
18 12.08 СЗ 6 20 км ясно +26.7 +5.9 26 +26 +26 жарко 1008.2 983.4 +36.4
21 12.08 СЗ 1 20 км ясно +22.4 +8.0 40 +24 +24 комфорт 1008.9 983.8
00 13.08 СЗ 2 20 км ясно +19.4 +6.7 44 +21 +21 комфорт 1009.6 984.2
03 13.08 штиль 0 20 км ясно +24.6 +5.9 30 +24 +29 комфорт 1009.9 985.0 +19.0
06 13.08 З 3 20 км ясно +29.4 +5.6 22 +28 +40 жарко 1009.3 984.8 +19.0
09 13.08 З 6 20 км ясно +32.0 +3.4 16 +29 +36 жарко 1008.6 984.2
12 13.08 СЗ 6 20 км ясно +30.7 +3.2 17 +28 +30 жарко 1008.1 983.7
15 13.08 З 5 20 км ясно +27.4 +4.5 23 +26 +26 жарко 1009.8 985.0 +32.0
18 13.08 СЗ 4 20 км ясно +22.9 +4.0 29 +23 +23 комфорт 1010.9 985.8 +32.0
21 13.08 СЗ 2 20 км ясно +19.2 +5.3 40 +20 +20 1011.5 986.1
00 14.08 СЗ 1 20 км ясно +17.2 +5.1 45 +18 +18 1011.3 985.7
03 14.08 ЮЗ 4 20 км 3/3 600 м
[Sc]
+20.6 +5.1 36 +21 +23 комфорт 1012.1 986.8 +13.9
09 14.08 З 8 20 км 5/5 600 м
[Cu med, cong]
+30.6 +1.1 15 +28 +29 жарко 1008.8 984.4
12 14.08 ЮЗ 9 20 км 4/4 600 м
[Cu med, cong]
+30.8 +1.1 15 +28 +28 жарко 1007.6 983.2
15 14.08 З 5 20 км ясно +27.8 +2.5 20 +26 +26 жарко 1008.6 983.9 +30.8
18 14.08 З 8 20 км ясно +23.2 +2.9 26 +23 +23 комфорт 1010.9 985.8 +30.8
21 14.08 СЗ 4 20 км ясно +20.0 -0.9 24 +20 +20 1011.5 986.1
00 15.08 штиль 0 20 км ясно +16.0 +2.1 39 +16 +16 1012.5 986.8
03 15.08 Ю 2 20 км ясно +20.8 +1.7 28 +22 +25 комфорт 1013.5 988.1 +15.7
06 15.08 З 5 20 км ясно +26.4 +3.4 23 +25 +33 комфорт 1013.3 988.3 +15.7
09 15.08 ЮЗ 6 20 км ясно +28.2 +2.5 19 +26 +32 жарко 1012.3 987.5
12 15.08 ЮЗ 4 20 км 3/3 1000 м
[Cu hum]
+30.0 +2.7 17 +28 +30 жарко 1010.3 985.8
15 15.08 СЗ 3 20 км 1/1 1000 м
[Sc]
+28.0 +3.6 21 +26 +26 жарко 1010.1 985.4 +30.0
18 15.08 СЗ 4 20 км 8/0
[Ac und]
+24.8 +4.5 27 +24 +24 комфорт 1011.1 986.2 +30.0
21 15.08 С 4 20 км ясно +20.2 +7.3 43 +21 +21 комфорт 1012.1 986.7
00 16.08 С 3 20 км ясно +17.3 +8.4 56 +17 +17 1012.5 987.0
03 16.08 С 5 20 км ясно +20.4 +8.6 47 +22 +23 комфорт 1013.2 987.8 +16.0
06 16.08 СВ 6 20 км ясно +25.2 +7.7 33 +25 +31 комфорт 1013.3 988.3 +16.0
09 16.08 СВ 4 20 км ясно +28.6 +3.4 20 +27 +37 жарко 1011.9 987.3
12 16.08 СЗ 6 20 км ясно +30.0 -0.5 14 +27 +29 жарко 1010.7 986.2
15 16.08 СЗ 5 20 км ясно +28.2 +0.2 16 +26 +26 жарко 1011.1 986.4 +30.0
18 16.08 СВ 3 20 км ясно +21.8 +1.5 26 +21 +21 комфорт 1013.1 987.8 +30.0
21 16.08 СВ 2 20 км ясно +17.9 +3.0 37 +18 +18 1011.9 986.4
00 17.08 С 3 20 км ясно +18.6 +3.2 36 +19 +19 1011.9 986.5
03 17.08 СЗ 3 20 км ясно +24.5 +4.5 27 +24 +27 комфорт 1011.7 986.8 +17.7
06 17.08 СЗ 3 20 км ясно +29.4 +2.9 18 +27 +39 жарко 1011.2 986.6 +17.7
09 17.08 СЗ 2 20 км ясно +32.0 +4.8 18 +30 +45 жарко 1009.5 985.1
12 17.08 СВ 5 20 км ясно +32.2 +2.5 15 +29 +32 жарко 1008.4 984.1
15 17.08 СВ 5 20 км ясно +30.0 +1.1 16 +27 +27 жарко 1009.0 984.5 +32.7
18 17.08 СВ 3 20 км ясно +24.8 +2.5 23 +24 +24 комфорт 1009.9 985.0 +32.7
21 17.08 СВ 2 20 км ясно +21.0 +1.5 27 +22 +22 комфорт 1010.4 985.1
00 18.08 С 2 20 км ясно +18.6 +1.9 33 +19 +19 1011.2 985.8
03 18.08 СВ 3 20 км ясно +22.8 +2.1 26 +22 +25 комфорт 1012.3 987.2 +17.2
06 18.08 СВ 6 20 км ясно +29.4 +1.3 16 +27 +33 жарко 1012.7 988.0 +17.2
09 18.08 С 8 20 км ясно +33.0 +1.1 13 +30 +33 жарко 1011.6 987.3
15 18.08 СВ 5 20 км ясно +31.6 +1.7 15 +29 +29 жарко 1011.6 987.2 +33.6

 

Местоположение метеостанции Айякагитма (Узбекистан): широта 40.68 долгота 64.48 высота над уровнем моря 219 м.

В архиве по умолчанию представлена погода в Айякагитме за последнюю неделю. Архивные данные за месяц целиком и за предыдущие месяцы, начиная с января 2011 года, Вы можете получить, выбрав интересующий диапазон дат из раскрывающегося списка и нажав кнопку "Ввод!".


*Определитесь, кто Вы:
робот инопланетянин человек

Внимание! Время в таблицах - всемирное. Для получения местного времени необходимо прибавить поправку, которая равна 5 ч.

Смотрите также архив погоды в соседних городах и на ближайших метеорологических станциях:

Погода в Машикудуке (Навоийская область, Узбекистан) (79 км)
Погода в Навои (Навоийская область, Узбекистан) (96 км)
Погода в Джангельды (Бухарская область, Узбекистан) (99 км)
Погода в Нурате (Навоийская область, Узбекистан) (102 км)
Погода в Зарафшане (Навоийская область, Узбекистан) (103 км)
Погода в Бухаре (Бухарская область, Узбекистан) (107 км)
Погода в Тамдыбулаке (Навоийская область, Узбекистан) (117 км)
Погода в Каракуле (Бухарская область, Узбекистан) (142 км)
Погода в Учкудуке (Навоийская область, Узбекистан) (171 км)
Погода на Каттакурган вдхр (Самаркандская область, Узбекистан) (183 км)

Пояснения к столбцам:

Ветер - указаны скорость ветра в м/с - средняя за 10 мин, порывы в срок и между сроками (в фигурных скобках) и направление, откуда дует ветер: С - северный, СВ - северо-восточный, В - восточный, ЮВ - юго-восточный, Ю - южный, ЮЗ - юго-западный, З - западный, СЗ - северо-западный.
Видимость - горизонтальная дальность видимости в метрах или километрах. При видимости от 1 до 10 км при отсутствии осадков обычно наблюдается дымка, при ухудшении видимости до 1 км и менее - туман. В сухую погоду видимость может ухудшаться дымом, пылью или мглою.
Явления - указаны атмосферные явления, наблюдавшиеся в срок или в последний час перед сроком; фигурными скобками обозначены явления, наблюдавшиеся между сроками (за 1-3 часа до срока); квадратными скобками обозначены град или гололедные отложения с указанием их диаметра в мм.
Облачность - указаны через наклонную черту общая и нижняя облачность в баллах и высота нижней границы облаков в метрах; квадратными скобками обозначены формы облаков: Ci - перистые, Cs - перисто-слоистые, Cc - перисто-кучевые, Ac - высококучевые, As - высокослоистые, Sc - слоисто-кучевые, Ns - слоисто-дождевые, Cu - кучевые, Cb - кучево-дождевые. Подробнее классификацию облаков см. в Атласе облаков (PDF).
T - Температура воздуха - температура, измеренная на высоте 2 м над землей.
Td - Температура точки росы - температура, при понижении до которой содержащийся в воздухе водяной пар достигнет насыщения.
f - Относительная влажность воздуха - влажноcть воздуха, измеренная на высоте 2 м над землей.
Te - Эффективная температура - температура, которую ощущает одетый по сезону человек в тени. Характеристика душности погоды. При расчете учитывается влияние влажности воздуха и скорости ветра на теплоощущения человека.
Tes - Эффективная температура на солнце - температура, которую ощущает человек, с поправкой на солнечный нагрев. Характеристика знойности погоды. Зависит от высоты солнца над горизонтом, облачности и скорости ветра. Ночью, в пасмурную погоду, а также при ветре 12 м/с и более поправка равна нулю.
P - Атмосферное давление - приведенное к уровню моря атмосферное давление.
Po - Атмосферное давление - измеренное на уровне метеостанции атмосферное давление.
Tmin - Минимальная температура - минимум температуры воздуха на высоте 2 м над землей.
Tmax - Максимальная температура - максимум температуры воздуха на высоте 2 м над землей.
R - Количество осадков - Количество выпавших осадков за период времени, мм. При наведении курсора мыши на число - период времени, за который выпало указанное количество осадков.
R24 - Количество осадков - Количество выпавших осадков за 24 часа, мм.
S - Снежный покров - Высота снежного покрова, см. При наведении курсора мыши на число - состояние снежного покрова и степень покрытия местности в баллах.